• In Belgien
  • Länderverzeichnis
  • Für 7 Tage
  • Wassertemperatur
  • Satellitenkarten
  • Wetterkarte
  • Widgets
  • user-avatar
    Anmelden

    Stündliche Wetter Albena

    Heute, 20 Oktober, Samstag

    Zeit Temperatur Niederschläge Wind Luftdruck Luftfeuchtigkeit
    00:00 +16°C° 0 mm 1 m/S 748 mmHg 84%
    01:00 +15°C° 0 mm 1 m/S 748 mmHg 83%
    02:00 +15°C° 0 mm 1 m/S 748 mmHg 83%
    03:00 +15°C° 0 mm 2 m/S 748 mmHg 83%
    04:00 +14°C° 0 mm 2 m/S 748 mmHg 82%
    05:00 +14°C° 0 mm 2 m/S 748 mmHg 82%
    06:00 +14°C° 0 mm 2 m/S 748 mmHg 79%
    07:00 +14°C° 0 mm 3 m/S 748 mmHg 76%
    08:00 +14°C° 0 mm 3 m/S 748 mmHg 72%
    09:00 +17°C° 0 mm 3 m/S 748 mmHg 65%
    10:00 +18°C° 0 mm 4 m/S 748 mmHg 58%
    11:00 +19°C° 0 mm 4 m/S 749 mmHg 51%
    12:00 +20°C° 0 mm 4 m/S 748 mmHg 49%
    13:00 +20°C° 0 mm 4 m/S 748 mmHg 47%
    14:00 +21°C° 0 mm 4 m/S 748 mmHg 44%
    15:00 +20°C° 0 mm 3 m/S 748 mmHg 47%
    16:00 +19°C° 0 mm 3 m/S 748 mmHg 49%
    17:00 +19°C° 0 mm 2 m/S 748 mmHg 52%
    18:00 +18°C° 0 mm 2 m/S 748 mmHg 56%
    19:00 +17°C° 0 mm 2 m/S 748 mmHg 59%
    20:00 +16°C° 0 mm 2 m/S 748 mmHg 62%
    21:00 +16°C° 0 mm 3 m/S 748 mmHg 66%
    22:00 +14°C° 0 mm 3 m/S 748 mmHg 69%
    23:00 +14°C° 0 mm 4 m/S 748 mmHg 72%

    Morgen, 21 Oktober, Sonntag

    Zeit Temperatur Niederschläge Wind Luftdruck Luftfeuchtigkeit
    00:00 +13°C° 0 mm 4 m/S 748 mmHg 75%
    01:00 +13°C° 0 mm 4 m/S 748 mmHg 78%
    02:00 +13°C° 0 mm 4 m/S 748 mmHg 80%
    03:00 +12°C° 0 mm 4 m/S 747 mmHg 81%
    04:00 +12°C° 0 mm 4 m/S 747 mmHg 83%
    05:00 +12°C° 0 mm 4 m/S 747 mmHg 84%
    06:00 +12°C° 0 mm 4 m/S 747 mmHg 82%
    07:00 +13°C° 0 mm 4 m/S 747 mmHg 80%
    08:00 +13°C° 0 mm 4 m/S 748 mmHg 78%
    09:00 +15°C° 0 mm 4 m/S 748 mmHg 71%
    10:00 +17°C° 0 mm 4 m/S 748 mmHg 64%
    11:00 +19°C° 0 mm 4 m/S 748 mmHg 57%
    12:00 +19°C° 0.1 mm 4 m/S 748 mmHg 55%
    13:00 +20°C° 0.1 mm 3 m/S 748 mmHg 53%
    14:00 +20°C° 0.1 mm 3 m/S 748 mmHg 51%
    15:00 +20°C° 0.2 mm 3 m/S 748 mmHg 55%
    16:00 +19°C° 0.2 mm 3 m/S 748 mmHg 59%
    17:00 +18°C° 0.2 mm 3 m/S 748 mmHg 63%
    18:00 +17°C° 0.1 mm 2 m/S 748 mmHg 66%
    19:00 +16°C° 0.1 mm 2 m/S 748 mmHg 69%
    20:00 +16°C° 0.1 mm 1 m/S 749 mmHg 72%
    21:00 +15°C° 0 mm 1 m/S 749 mmHg 73%
    22:00 +15°C° 0 mm 2 m/S 749 mmHg 73%
    23:00 +15°C° 0 mm 2 m/S 749 mmHg 74%

    übermorgen, 22 Oktober, Montag

    Zeit Temperatur Niederschläge Wind Luftdruck Luftfeuchtigkeit
    00:00 +14°C° 0 mm 2 m/S 749 mmHg 74%
    01:00 +13°C° 0 mm 3 m/S 749 mmHg 75%
    02:00 +12°C° 0 mm 3 m/S 749 mmHg 76%
    03:00 +12°C° 0 mm 3 m/S 749 mmHg 77%
    04:00 +11°C° 0 mm 4 m/S 749 mmHg 78%
    05:00 +11°C° 0 mm 4 m/S 749 mmHg 80%
    06:00 +10°C° 0 mm 5 m/S 750 mmHg 78%
    07:00 +12°C° 0 mm 5 m/S 750 mmHg 76%
    08:00 +12°C° 0 mm 5 m/S 750 mmHg 74%
    09:00 +13°C° 0 mm 5 m/S 750 mmHg 68%
    10:00 +15°C° 0 mm 5 m/S 750 mmHg 62%
    11:00 +16°C° 0 mm 5 m/S 750 mmHg 55%
    12:00 +17°C° 0 mm 5 m/S 750 mmHg 52%
    13:00 +17°C° 0 mm 5 m/S 750 mmHg 50%
    14:00 +19°C° 0 mm 4 m/S 749 mmHg 47%
    15:00 +18°C° 0 mm 4 m/S 749 mmHg 50%
    16:00 +17°C° 0 mm 4 m/S 749 mmHg 53%
    17:00 +16°C° 0 mm 3 m/S 749 mmHg 56%
    18:00 +14°C° 0 mm 3 m/S 749 mmHg 59%
    19:00 +13°C° 0 mm 3 m/S 749 mmHg 63%
    20:00 +13°C° 0 mm 2 m/S 749 mmHg 67%
    21:00 +13°C° 0 mm 2 m/S 749 mmHg 67%
    22:00 +13°C° 0 mm 2 m/S 749 mmHg 67%
    23:00 +12°C° 0 mm 2 m/S 749 mmHg 67%

    23 Oktober, Dienstag

    Zeit Temperatur Niederschläge Wind Luftdruck Luftfeuchtigkeit
    00:00 +12°C° 0 mm 2 m/S 749 mmHg 67%
    01:00 +12°C° 0 mm 2 m/S 749 mmHg 66%
    02:00 +10°C° 0 mm 2 m/S 749 mmHg 66%
    03:00 +10°C° 0 mm 3 m/S 749 mmHg 66%
    04:00 +10°C° 0 mm 3 m/S 749 mmHg 67%
    05:00 +9°C° 0 mm 3 m/S 749 mmHg 67%
    06:00 +10°C° 0 mm 3 m/S 749 mmHg 64%
    07:00 +10°C° 0 mm 3 m/S 749 mmHg 62%
    08:00 +12°C° 0 mm 2 m/S 749 mmHg 60%
    09:00 +14°C° 0 mm 2 m/S 749 mmHg 54%
    10:00 +15°C° 0 mm 2 m/S 749 mmHg 48%
    11:00 +17°C° 0 mm 2 m/S 749 mmHg 42%
    12:00 +17°C° 0 mm 2 m/S 749 mmHg 40%
    13:00 +18°C° 0 mm 2 m/S 748 mmHg 39%
    14:00 +18°C° 0 mm 2 m/S 748 mmHg 37%
    15:00 +17°C° 0 mm 2 m/S 748 mmHg 41%
    16:00 +16°C° 0 mm 2 m/S 747 mmHg 45%
    17:00 +16°C° 0 mm 2 m/S 747 mmHg 49%
    18:00 +15°C° 0 mm 2 m/S 747 mmHg 55%
    19:00 +14°C° 0 mm 2 m/S 747 mmHg 60%
    20:00 +13°C° 0 mm 1 m/S 747 mmHg 66%
    21:00 +13°C° 0 mm 1 m/S 747 mmHg 68%
    22:00 +12°C° 0 mm 1 m/S 746 mmHg 71%
    23:00 +12°C° 0 mm 1 m/S 746 mmHg 73%

    24 Oktober, Mittwoch

    Zeit Temperatur Niederschläge Wind Luftdruck Luftfeuchtigkeit
    00:00 +12°C° 0 mm 1 m/S 746 mmHg 75%
    01:00 +11°C° 0 mm 1 m/S 745 mmHg 76%
    02:00 +10°C° 0 mm 2 m/S 744 mmHg 77%
    03:00 +10°C° 0 mm 2 m/S 744 mmHg 76%
    04:00 +10°C° 0 mm 2 m/S 743 mmHg 76%
    05:00 +10°C° 0 mm 3 m/S 743 mmHg 75%
    06:00 +10°C° 0 mm 3 m/S 743 mmHg 71%
    07:00 +11°C° 0 mm 4 m/S 742 mmHg 66%
    08:00 +10°C° 0 mm 5 m/S 742 mmHg 61%
    09:00 +13°C° 0 mm 6 m/S 741 mmHg 52%
    10:00 +15°C° 0 mm 7 m/S 741 mmHg 43%
    11:00 +16°C° 0 mm 7 m/S 740 mmHg 34%
    12:00 +16°C° 0 mm 8 m/S 739 mmHg 36%
    13:00 +17°C° 0 mm 8 m/S 739 mmHg 37%
    14:00 +17°C° 0 mm 8 m/S 738 mmHg 39%
    15:00 +16°C° 0 mm 8 m/S 737 mmHg 41%
    16:00 +16°C° 0 mm 7 m/S 737 mmHg 43%
    17:00 +15°C° 0 mm 7 m/S 737 mmHg 45%
    18:00 +15°C° 0 mm 8 m/S 737 mmHg 47%
    19:00 +13°C° 0 mm 8 m/S 737 mmHg 49%
    20:00 +13°C° 0 mm 9 m/S 737 mmHg 51%
    21:00 +12°C° 0 mm 10 m/S 737 mmHg 53%
    22:00 +11°C° 0 mm 10 m/S 737 mmHg 55%
    23:00 +9°C° 0 mm 11 m/S 738 mmHg 57%

    25 Oktober, Donnerstag

    Zeit Temperatur Niederschläge Wind Luftdruck Luftfeuchtigkeit
    00:00 +8°C° 0 mm 9 m/S 738 mmHg 52%
    01:00 +7°C° 0 mm 8 m/S 739 mmHg 47%
    02:00 +5°C° 0 mm 6 m/S 739 mmHg 42%
    03:00 +5°C° 0 mm 6 m/S 740 mmHg 42%
    04:00 +4°C° 0 mm 6 m/S 740 mmHg 42%
    05:00 +3°C° 0 mm 6 m/S 741 mmHg 42%
    06:00 +4°C° 0 mm 6 m/S 741 mmHg 42%
    07:00 +4°C° 0 mm 6 m/S 742 mmHg 42%
    08:00 +4°C° 0 mm 6 m/S 742 mmHg 41%
    09:00 +5°C° 0 mm 6 m/S 743 mmHg 38%
    10:00 +7°C° 0 mm 6 m/S 743 mmHg 35%
    11:00 +9°C° 0 mm 6 m/S 744 mmHg 31%
    12:00 +9°C° 0 mm 6 m/S 744 mmHg 30%
    13:00 +10°C° 0 mm 6 m/S 744 mmHg 28%
    14:00 +10°C° 0 mm 6 m/S 744 mmHg 27%
    15:00 +9°C° 0 mm 5 m/S 744 mmHg 28%
    16:00 +9°C° 0 mm 5 m/S 744 mmHg 29%
    17:00 +8°C° 0 mm 5 m/S 745 mmHg 30%
    18:00 +7°C° 0 mm 4 m/S 745 mmHg 32%
    19:00 +7°C° 0 mm 4 m/S 745 mmHg 33%
    20:00 +6°C° 0 mm 4 m/S 746 mmHg 35%
    21:00 +7°C° 0 mm 3 m/S 746 mmHg 36%
    22:00 +5°C° 0 mm 3 m/S 746 mmHg 37%
    23:00 +5°C° 0 mm 3 m/S 746 mmHg 38%
    Mehr zeigen